Погода в Юледуре

Россия / Республика Марий Эл     56°48′32″N   49°10′42″E
темп.,
°C
ветер,
м/с
пор.,
м/с
влажн.,
%
обл.,
%
осадки,
мм/ч
давл.,
гПа
погр.,
м
9 марта, вт
вт900:00−13зсз459539 0.0 100177
03:00−15зсз349620 0.0 100447
06:00−16зсз239887 0.0 100623
09:00−13сз229393 0.1 1008180
12:00−11ссв2290100 0.1 1009314
15:00−10с3492100 0.3 1009387
18:00−12с3696100 0.3 1010179
21:00−14с5995100 0.4 1011327
10 марта, ср
ср1000:00−17с6109598 0.1 1012331
03:00−20с6119699 0.1 1013344
06:00−22с61196100 0.1 1015330
09:00−24с61094100 0.1 1017327
12:00−21с6108843 0.0 1018454
15:00−18ссз6108522 0.0 1019615
18:00−22ссз4109417 0.0 1020198
21:00−23ссз410969 0.0 1021164
11 марта, чт
чт1100:00−24сз479936 0.0 1022111
03:00−25зсз479818 0.0 1022114
06:00−21зсз5119585 0.0 1022282
09:00−19сз589592 0.1 1022317
12:00−14сз589299 0.1 1022404
15:00−11сз61090100 0.1 1023538
18:00−11зсз5138979 0.0 1024287
21:00−12сз6149056 0.0 1025306
12 марта, пт
пт1200:00−14сз511900 0.0 1026207
03:00−17зсз510901 0.0 1027155
06:00−17з5109233 0.0 1028202
09:00−14з6119061 0.0 1028311
12:00−10з7118592 0.0 1028534
15:00−9з7128393 0.0 1028679
18:00−10з61388100 0.0 1028554
21:00−11з61390100 0.0 1029479
13 марта, сб
сб1300:00−13з61289100 0.0 1029329
03:00−14з51190100 0.0 1030281
06:00−17зюз498793 0.0 1031194
09:00−14зюз488273 0.0 1031263
12:00−8юз487953 0.0 1031464
15:00−7юз598258 0.0 1030571
18:00−12ююз489431 0.0 1029151
21:00−14ююз5119334 0.0 1028236